www.pogodaiklimat.ru

Погода и климат >> Архив погоды >> Индонезия >> Джакарта


АРХИВ ПОГОДЫ в Джакарте

Время (UTC), дата Ветер
(напр.,м/с)
 
Видим.   Явления Облачность Т
(С)
Тd
(С)
f
(%)
Тe
(С)
Тes
(С)
Комфортность P
(гПа)
Po
(гПа)
Тmin
(С)
Tmax
(С)
R
(мм)
R24
(мм)
S
(см)
21 16.05 штиль 0 6000 м 9/4 570 м
[Sc As op Ci fib]
+26.6 +24.7 89 +38 +38 очень
душно
1010.9 1010.4
00 17.05 штиль 0 6000 м мгла 6/1 600 м
[Sc As op Ci fib]
+26.5 +24.5 89 +37 +38 очень
душно
1011.2 1010.7 +26.2 1
03 17.05 В 2 7000 м 9/4 600 м
[Cu med, cong As op Ci fib]
+30.4 +24.8 72 +43 +49 опасность
перегрева
1012.2 1011.7
06 17.05 С 4 7000 м 8/3 600 м
[Sc As op Ci fib]
+32.0 +24.6 65 +45 +50 опасность
перегрева
1010.2 1009.8
09 17.05 СВ 2 7000 м 8/3 600 м
[Sc As op Ci fib]
+30.4 +24.4 70 +42 +44 опасность
перегрева
1008.8 1008.3
12 17.05 штиль 0 6000 м 9/4 600 м
[Sc As op Ci fib]
+29.6 +23.8 71 +41 +41 опасность
перегрева
1010.2 1009.8 +32.4
15 17.05 штиль 0 6000 м 9/5 600 м
[Sc As op Ci fib]
+29.2 +24.3 75 +41 +41 опасность
перегрева
1012.1 1011.6
18 17.05 штиль 0 6000 м 8/3 600 м
[Sc As op Ci fib]
+28.0 +23.9 78 +39 +39 очень
душно
1011.3 1010.8
21 17.05 штиль 0 6000 м 9/4 600 м
[Sc As op Ci fib]
+28.0 +23.3 76 +38 +38 очень
душно
1010.3 1009.9
00 18.05 штиль 0 7000 м {дождь} 9/4 600 м
[Sc As op Ci fib]
+27.0 +24.6 87 +38 +39 очень
душно
1011.7 1011.2 +26.4 2
03 18.05 Ю 3 8000 м 9/4 600 м
[Sc As op Ci fib]
+30.8 +23.6 66 +42 +46 опасность
перегрева
1012.6 1012.1
06 18.05 ЮВ 3 8000 м 9/4 600 м
[Sc As op Ci fib]
+31.8 +26.1 72 +48 +52 опасность
перегрева
1010.8 1010.3
09 18.05 Ю 3 8000 м 9/4 600 м
[Sc As op Ci fib]
+32.4 +23.2 58 +43 +44 опасность
перегрева
1009.0 1008.5
12 18.05 штиль 0 6000 м 9/4 600 м
[Sc As op Ci fib]
+29.2 +24.3 75 +41 +41 опасность
перегрева
1008.3 1007.8 +32.4
15 18.05 штиль 0 6000 м 9/4 600 м
[Sc As op Ci fib]
+28.8 +24.5 78 +41 +41 опасность
перегрева
1011.9 1011.4
18 18.05 штиль 0 6000 м 9/4 600 м
[Sc As op Ci fib]
+28.2 +24.1 78 +39 +39 очень
душно
1011.7 1011.2
21 18.05 штиль 0 6000 м 8/3 600 м
[Sc As op Ci fib]
+27.6 +23.8 80 +38 +38 очень
душно
1010.8 1010.3
00 19.05 ЮВ 2 6000 м 8/3 600 м
[Sc As op Ci fib]
+27.2 +23.6 81 +37 +38 очень
душно
1011.6 1011.1 +27.0
03 19.05 В 3 7000 м 8/4 600 м
[Sc As op Ci fib]
+32.0 +22.9 59 +42 +47 опасность
перегрева
1012.5 1012.0
06 19.05 В 3 7000 м 8/4 600 м
[Sc As op Ci fib]
+33.0 +22.5 54 +42 +48 опасность
перегрева
1010.2 1009.7
09 19.05 В 4 7000 м 8/4 600 м
[Sc As op Ci fib]
+31.6 +24.0 64 +43 +44 опасность
перегрева
1008.6 1008.1
12 19.05 В 3 6000 м 8/4 600 м
[Sc As op Ci fib]
+30.8 +24.3 68 +43 +43 опасность
перегрева
1009.7 1009.2 +33.4
15 19.05 В 2 6000 м 9/5 600 м
[Sc As op Ci fib]
+29.9 +25.1 75 +43 +43 опасность
перегрева
1012.7 1012.2
18 19.05 штиль 0 6000 м 8/3 600 м
[Sc As op Ci fib]
+29.2 +24.9 78 +42 +42 опасность
перегрева
1011.6 1011.1
21 19.05 ЮВ 2 6000 м 8/3 600 м
[Sc As op Ci fib]
+28.0 +24.2 80 +39 +39 очень
душно
1010.5 1010.0
00 20.05 В 3 7000 м 6/3 600 м
[Sc Ac As Ci fib]
+28.0 +24.2 80 +39 +40 очень
душно
1011.5 1011.0 +27.2
03 20.05 В 2 7000 м 4/3 600 м
[Sc As trans Ci fib]
+32.4 +23.4 59 +43 +52 опасность
перегрева
1012.0 1011.5
06 20.05 СВ 3 7000 м 5/4 600 м
[Cu med, cong As trans Ci fib]
+34.2 +23.9 55 +46 +54 опасность
перегрева
1010.2 1009.7
09 20.05 С 4 7000 м 6/3 600 м
[Cu med, cong Ac As Ci fib]
+32.4 +24.6 64 +45 +47 опасность
перегрева
1009.3 1008.8
12 20.05 В 2 6000 м 6/1 600 м
[Sc As op Ci fib]
+30.6 +25.5 74 +45 +45 опасность
перегрева
1010.4 1009.8 +34.4
15 20.05 ЮВ 2 6000 м 6/1 600 м
[Sc As op Ci fib]
+29.4 +25.1 78 +43 +43 опасность
перегрева
1012.1 1011.6
18 20.05 штиль 0 6000 м 6/3 600 м
[Sc As op Ci fib]
+28.8 +24.4 77 +40 +40 очень
душно
1011.0 1010.5
21 20.05 штиль 0 6000 м 5/1 600 м
[Sc As op Ci fib]
+28.4 +24.3 78 +40 +40 очень
душно
1010.6 1010.1
00 21.05 штиль 0 6000 м мгла 5/1 600 м
[Sc As trans Ci fib]
+28.2 +24.1 78 +39 +40 очень
душно
1011.7 1011.2 +27.6
03 21.05 штиль 0 50 км ?/? +32.0 +24.9 66 +45 +45 опасность
перегрева
1012.3 1011.8
06 21.05 В 2 7000 м 9/4 600 м
[Cu med, cong As op Ci fib]
+34.0 +24.4 57 +46 +52 опасность
перегрева
1010.1 1009.6
09 21.05 СВ 2 7000 м 6/1 700 м
[Sc As op Ci fib]
+32.8 +24.3 61 +45 +48 опасность
перегрева
1008.7 1008.2
12 21.05 СВ 2 6000 м 5/1 700 м
[Sc As trans Ci fib]
+30.2 +23.8 69 +42 +42 опасность
перегрева
1009.8 1009.2 +34.2
15 21.05 штиль 0 6000 м 5/1 700 м
[Sc As trans Ci fib]
+29.2 +23.8 73 +40 +40 очень
душно
1012.1 1011.6
18 21.05 штиль 0 6000 м 8/3 600 м
[Sc As op Ci fib]
+28.4 +23.7 76 +39 +39 очень
душно
1011.8 1011.3
21 21.05 штиль 0 6000 м 4/1 700 м
[Sc As trans Ci fib]
+27.8 +23.7 78 +38 +38 очень
душно
1011.1 1010.6
00 22.05 штиль 0 7000 м 5/1 700 м
[Sc As op Ci fib]
+27.6 +23.2 77 +37 +38 очень
душно
1011.6 1011.1 +27.2
03 22.05 ЮЗ 3 8000 м 6/3 600 м
[Sc As trans Ci fib]
+32.0 +21.7 55 +41 +47 опасность
перегрева
1010.0 1009.5
06 22.05 ЮЗ 3 8000 м 6/3 600 м
[Sc As op Ci fib]
+33.6 +21.6 50 +42 +49 опасность
перегрева
1010.9 1010.4
09 22.05 ЮЗ 3 8000 м 6/3 600 м
[Sc As op Ci fib]
+32.8 +22.3 54 +42 +43 опасность
перегрева
1009.8 1009.3
12 22.05 штиль 0 6000 м 6/3 600 м
[Sc As op Ci fib]
+30.0 +23.3 67 +40 +40 очень
душно
1008.6 1008.1 +33.8
15 22.05 штиль 0 6000 м 6/3 600 м
[Sc As op Ci fib]
+29.2 +23.0 69 +39 +39 очень
душно
1010.4 1009.9
18 22.05 штиль 0 6000 м 6/3 600 м
[Sc As op Ci fib]
+28.4 +24.9 81 +41 +41 опасность
перегрева
1011.5 1011.0
21 22.05 штиль 0 6000 м 6/3 600 м
[Sc As op Ci fib]
+27.4 +23.9 81 +38 +38 очень
душно
1010.2 1009.7
00 23.05 штиль 0 7000 м 6/3 600 м
[Sc As op Ci fib]
+28.0 +24.2 80 +39 +40 очень
душно
1011.4 1010.9 +27.0
03 23.05 В 2 8000 м 6/3 600 м
[Sc As op Ci fib]
+32.8 +22.9 56 +43 +50 опасность
перегрева
1013.3 1012.8
06 23.05 В 5 7000 м 8/4 600 м
[Cu med, cong As op Ci fib]
+34.8 +22.8 50 +45 +48 опасность
перегрева
1010.8 1010.3
09 23.05 ЮВ 2 7000 м 6/3 600 м
[Sc As op Ci fib]
+32.0 +23.2 60 +43 +45 опасность
перегрева
1009.8 1009.3
12 23.05 ЮВ 2 6000 м 5/1 600 м
[Sc As trans Ci fib]
+30.6 +23.2 65 +41 +41 опасность
перегрева
1010.5 1010.0 +35.0
15 23.05 ЮВ 2 6000 м 5/1 600 м
[Sc As trans Ci fib]
+29.4 +23.7 71 +40 +40 очень
душно
1012.0 1011.5
18 23.05 штиль 0 6000 м 5/3 600 м
[Sc As trans Ci fib]
+28.8 +24.2 76 +40 +40 очень
душно
1011.5 1011.0

 

Местоположение метеостанции Джакарта (Индонезия): широта -6.18 долгота 106.83 высота над уровнем моря 8 м.

В архиве по умолчанию представлена погода в Джакарте за последнюю неделю. Архивные данные за месяц целиком и за предыдущие месяцы, начиная с января 2011 года, Вы можете получить, выбрав интересующий диапазон дат из раскрывающегося списка и нажав кнопку "Ввод!".


*Определитесь, кто Вы:
робот инопланетянин человек

Внимание! Время в таблицах - всемирное. Для получения местного времени необходимо прибавить поправку, которая равна 7 ч.

Смотрите также архив погоды в соседних городах и на ближайших метеорологических станциях:

Погода в Джакарта порту (Индонезия) (10 км)
Погода в Чуруге (Индонезия) (21 км)
Погода в Аэропорту Сукарно-Хатта (Индонезия) (21 км)
Погода в Цитеко (Индонезия) (59 км)
Погода в Серанге (Индонезия) (78 км)
Погода в Бандунге (Индонезия) (115 км)
Погода в Сиребоне (Индонезия) (170 км)
Погода в Танджунгкаранге (Индонезия) (219 км)
Погода в Тегале (Индонезия) (267 км)
Погода в Чилачапе (Индонезия) (296 км)

Пояснения к столбцам:

Ветер - указаны скорость ветра в м/с - средняя за 10 мин, порывы в срок и между сроками (в фигурных скобках) и направление, откуда дует ветер: С - северный, СВ - северо-восточный, В - восточный, ЮВ - юго-восточный, Ю - южный, ЮЗ - юго-западный, З - западный, СЗ - северо-западный.
Видимость - горизонтальная дальность видимости в метрах или километрах. При видимости от 1 до 10 км при отсутствии осадков обычно наблюдается дымка, при ухудшении видимости до 1 км и менее - туман. В сухую погоду видимость может ухудшаться дымом, пылью или мглою.
Явления - указаны атмосферные явления, наблюдавшиеся в срок или в последний час перед сроком; фигурными скобками обозначены явления, наблюдавшиеся между сроками (за 1-3 часа до срока); квадратными скобками обозначены град или гололедные отложения с указанием их диаметра в мм.
Облачность - указаны через наклонную черту общая и нижняя облачность в баллах и высота нижней границы облаков в метрах; квадратными скобками обозначены формы облаков: Ci - перистые, Cs - перисто-слоистые, Cc - перисто-кучевые, Ac - высококучевые, As - высокослоистые, Sc - слоисто-кучевые, Ns - слоисто-дождевые, Cu - кучевые, Cb - кучево-дождевые. Подробнее классификацию облаков см. в Атласе облаков (PDF).
T - Температура воздуха - температура, измеренная на высоте 2 м над землей.
Td - Температура точки росы - температура, при понижении до которой содержащийся в воздухе водяной пар достигнет насыщения.
f - Относительная влажность воздуха - влажноcть воздуха, измеренная на высоте 2 м над землей.
Te - Эффективная температура - температура, которую ощущает одетый по сезону человек в тени. Характеристика душности погоды. При расчете учитывается влияние влажности воздуха и скорости ветра на теплоощущения человека.
Tes - Эффективная температура на солнце - температура, которую ощущает человек, с поправкой на солнечный нагрев. Характеристика знойности погоды. Зависит от высоты солнца над горизонтом, облачности и скорости ветра. Ночью, в пасмурную погоду, а также при ветре 12 м/с и более поправка равна нулю.
P - Атмосферное давление - приведенное к уровню моря атмосферное давление.
Po - Атмосферное давление - измеренное на уровне метеостанции атмосферное давление.
Tmin - Минимальная температура - минимум температуры воздуха на высоте 2 м над землей.
Tmax - Максимальная температура - максимум температуры воздуха на высоте 2 м над землей.
R - Количество осадков - Количество выпавших осадков за период времени, мм. При наведении курсора мыши на число - период времени, за который выпало указанное количество осадков.
R24 - Количество осадков - Количество выпавших осадков за 24 часа, мм.
S - Снежный покров - Высота снежного покрова, см. При наведении курсора мыши на число - состояние снежного покрова и степень покрытия местности в баллах.